Regional Weather Roundup
Issued by NWS

Home | Current Version | Previous Version | Text Only | Print | Product List | Glossary On
Versions: 1 2 3 4 5 6 7 8 9 10 11 12 13 14 15 16 17 18 19 20 21 22 23 24 25 26 27
000
ASUS45 KPSR 271710
RWRAZ

ARIZONA HOURLY REGIONAL WEATHER ROUNDUP
NATIONAL WEATHER SERVICE PHOENIX AZ
1000 AM MST WED JUL 27 2016

NOTE: FAIR INDICATES FEW OR NO CLOUDS BELOW 12,000 FEET WITH NO
SIGNIFICANT WEATHER AND/OR OBSTRUCTIONS TO VISIBILITY.

AZZ001>003-036-271800-
NORTHWEST ARIZONA

CITY           SKY/WX    TMP DP  RH WIND       PRES   REMARKS
BULLHEAD CITY  SUNNY    104  57  21 SW10      29.81F HX 103
KINGMAN        SUNNY     99  47  17 SW14      30.05S
$$

AZZ004>008-015-016-018-271800-
NORTH CENTRAL ARIZONA

CITY           SKY/WX    TMP DP  RH WIND       PRES   REMARKS
GRAND CANYON   SUNNY     88  39  17 CALM      30.33S
WILLIAMS       SUNNY     82  48  30 VRB5      30.41S
PRESCOTT       SUNNY     89  53  29 VRB5      30.21R
FLAGSTAFF      SUNNY     83  44  25 N5        30.36R
PAYSON         SUNNY     86  55  35 SW8       30.23S
PAGE           SUNNY     90  42  18 N3        30.13S
$$

AZZ009>014-017-271800-
NORTHEAST ARIZONA

CITY           SKY/WX    TMP DP  RH WIND       PRES   REMARKS
WINSLOW        SUNNY     89  48  24 CALM      30.19S
SAINT JOHNS    SUNNY     86  52  30 VRB7      30.24S
WINDOW ROCK    SUNNY     84  49  29 NW3       30.33F
SHOW LOW       SUNNY     81  46  30 W6        30.31S
$$

AZZ023-271800-
GREATER PHOENIX AREA

CITY           SKY/WX    TMP DP  RH WIND       PRES   REMARKS
PHOENIX        MOSUNNY   99  63  30 SE6       29.89S HX 101
BUCKEYE        SUNNY     99  55  23 S8        29.91S
GLENDALE       MOSUNNY  100  57  23 SE9       29.91R
LUKE AFB       SUNNY    100  59  25 S8        29.88S HX 100
DEER VALLEY    SUNNY     98  60  28 VRB6      29.92R
SCOTTSDALE     SUNNY     97  60  29 S7        29.94R
MESA-FALCON    MOSUNNY  N/A N/A N/A E10       29.90S
MESA-GATEWAY   MOSUNNY   97  63  32 SE7       29.93S
CHANDLER       MOSUNNY   99  61  28 S6        29.91S
$$

AZZ027-028-271800-
SOUTHWEST MARICOPA COUNTY AND PINAL COUNTY

CITY           SKY/WX    TMP DP  RH WIND       PRES   REMARKS
CASA GRANDE    SUNNY     99  61  28 W6        29.95S
GILA BEND      MOSUNNY  101  57  23 VRB2      29.87F HX 100
$$

AZZ503-504-507>509-271800-
SOUTHEAST ARIZONA

CITY           SKY/WX    TMP DP  RH WIND       PRES   REMARKS
TUCSON         MOSUNNY   93  62  35 S7        30.04S
DAVIS-MONTHAN  SUNNY     91  63  39 SW5       30.02F
RYAN FIELD     SUNNY     90  64  43 W3        30.02F
NOGALES        PTSUNNY   84  64  50 CALM      30.13S
SIERRA VISTA   CLOUDY    83  59  44 N3        30.19S
DOUGLAS          N/A    N/A N/A N/A MISG      30.14S
SAFFORD        SUNNY     91  59  33 CALM      30.04F
$$

AZZ020-021-025-026-031-271800-
SOUTHWEST ARIZONA

CITY           SKY/WX    TMP DP  RH WIND       PRES   REMARKS
YUMA           MOSUNNY  101  61  26 S14       29.82R HX 102
$$

CAZ031-033-041-043-047-048-061-271800-
SOUTHERN CALIFORNIA

CITY           SKY/WX    TMP DP  RH WIND       PRES   REMARKS
DOWNTOWN L.A.  SUNNY     83  62  49 CALM      29.91S
L.A. AIRPORT   MOSUNNY   76  65  68 W8        29.93S
SAN DIEGO      MOSUNNY   76  67  73 W7        29.93S
BURBANK        SUNNY     85  50  29 CALM      29.93S
ONTARIO        MOSUNNY   87  46  24 S3        29.94S
RIVERSIDE      SUNNY     88  48  25 VRB5      29.93S
PALM SPRINGS   SUNNY    100  53  20 VRB3      29.84S
EL CENTRO NAS  MOSUNNY  100  65  31 CALM      29.80S HX 103
IMPERIAL       SUNNY    101  70  36 CALM      29.79R HX 108
BLYTHE         SUNNY    101  60  25 S10       29.82R HX 101
NEEDLES        MOSUNNY  107  59  20 E8        29.83S HX 108
$$

NVZ020-UTZ003-271800-
SOUTHERN NEVADA-UTAH

CITY           SKY/WX    TMP DP  RH WIND       PRES   REMARKS
LAS VEGAS      MOSUNNY  102  40  12 CALM      29.89S
SALT LAKE CITY SUNNY     91  33  12 CALM      30.13S
$$

NMZ009-TXZ055-271800-
NEW MEXICO-WEST TEXAS

CITY           SKY/WX    TMP DP  RH WIND       PRES   REMARKS
ALBUQUERQUE    MOSUNNY   81  57  43 W7        30.25S
EL PASO        CLOUDY    81  64  56 N10       30.14R
$$


........................KEY........................
SKY/WX - SKY CONDITION/WEATHER
TMP    - TEMPERATURE IN FAHRENHEIT
DP     - DEW POINT IN FAHRENHEIT
RH     - RELATIVE HUMIDITY IN PERCENT
WIND   - DIRECTION AND SPEED IN MILES PER HOUR (MPH)
VRB    - VARIABLE WIND DIRECTION
PRES   - MEAN SEA LEVEL PRESSURE IN INCHES OF MERCURY
         F - FALLING PRESSURE   R - RISING PRESSURE
         S - STEADY PRESSURE
VSB    - VISIBILITY IN MILES
HX     - HEAT INDEX IN FAHRENHEIT
WCI    - WIND CHILL INDEX IN FAHRENHEIT
TC     - TEMPERATURE IN CELSIUS WHICH IS ALSO KNOWN AS
         TEMPERATURE IN CENTIGRADE
AFB    - AIR FORCE BASE
         LUKE AFB IS LUKE AIR FORCE BASE
         DAVIS-MONTHAN IS DAVIS-MONTHAN AIR FORCE BASE
NAS    - NAVAL AIR STATION
         EL CENTRO NAS IS EL CENTRO NAVAL AIR STATION
N/A    - NOT AVAILABLE





USA.gov is the U.S. government's official web portal to all federal, state and local government web resources and services.